Gig Harbor, WA

6:23 AM PST on February 23, 2017 (GMT -0800)
Tacoma Narrows

Weather History for KTIW - February, 2014

Change the Weather History Date:

Wednesday, February 5, 2014

  Actual Average Record
Temperature  
Mean Temperature 24 °F -  
Max Temperature 28 °F 46 °F 57 °F (1998)
Min Temperature 21 °F 36 °F 21 °F (2014)
Degree Days  
Heating Degree Days 40    
Moisture  
Dew Point 1 °F    
Average Humidity 34    
Maximum Humidity 39    
Minimum Humidity 27    
Precipitation  
Precipitation 0.00 in - - ()
Sea Level Pressure  
Sea Level Pressure 30.42 in    
Wind  
Wind Speed 7 mph (NE)    
Max Wind Speed 10 mph    
Max Gust Speed 21 mph    
Visibility 10 miles    
Events      
Averages and records for this station are not official NWS values.
T = Trace of Precipitation, MM = Missing Value Source: NWS Daily Summary

Daily Weather History Graph

Daily Weather History Graph

Search for Another Location

Airport or City:

Trip Planner

Search our weather history database for the weather conditions in past years. The results will help you decide how hot, cold, wet, or windy it might be!

Date:

Astronomy

Feb. 05, 2014 Rise Set
Actual Time 7:30 AM PST 5:18 PM PST
Civil Twilight 6:58 AM PST 5:51 PM PST
Nautical Twilight 6:21 AM PST 6:27 PM PST
Astronomical Twilight 5:46 AM PST 7:03 PM PST
Moon 10:19 AM PST (2/5) No Moon Set
Length of Visible Light 10h 53m
Length of Day
9h 48m
Waxing Crescent, 40% of the Moon is Illuminated
Feb 5
Waxing Crescent
Feb 6
First Quarter
Feb 14
Full
Feb 22
Last Quarter
Mar 1
New

Hourly Weather History & Observations

Time (PST) Temp. Windchill Dew Point Humidity Pressure Visibility Wind Dir Wind Speed Gust Speed Precip Events Conditions
12:53 AM 28.9 °F 22.8 °F 6.1 °F 38% 30.42 in 10.0 mi ENE 5.8 mph - N/A   Unknown
1:53 AM 28.0 °F 20.8 °F 3.9 °F 36% 30.43 in 10.0 mi NE 6.9 mph - N/A   Unknown
2:53 AM 27.0 °F 20.5 °F 3.9 °F 37% 30.44 in 10.0 mi Variable 5.8 mph - N/A   Unknown
3:53 AM 26.1 °F 17.6 °F 3.0 °F 37% 30.45 in 10.0 mi NE 8.1 mph - N/A   Unknown
4:53 AM 25.0 °F 18.1 °F 3.0 °F 39% 30.45 in 10.0 mi ENE 5.8 mph - N/A   Unknown
5:53 AM 25.0 °F 15.5 °F 1.9 °F 37% 30.45 in 10.0 mi NE 9.2 mph - N/A   Unknown
6:53 AM 24.1 °F 15.2 °F 1.9 °F 38% 30.46 in 10.0 mi NE 8.1 mph 17.3 mph N/A   Unknown
7:53 AM 24.1 °F 13.7 °F -0.0 °F 35% 30.47 in 10.0 mi NE 10.4 mph - N/A   Clear
8:53 AM 25.0 °F 14.8 °F -0.0 °F 34% 30.48 in 10.0 mi ENE 10.4 mph 16.1 mph N/A   Clear
9:53 AM 26.1 °F 16.2 °F -2.0 °F 30% 30.47 in 10.0 mi ENE 10.4 mph 20.7 mph N/A   Clear
10:53 AM 27.0 °F 18.7 °F -0.9 °F 30% 30.47 in 10.0 mi NE 8.1 mph - N/A   Clear
11:53 AM 28.0 °F 19.3 °F -2.0 °F 27% 30.46 in 10.0 mi NNE 9.2 mph - N/A   Partly Cloudy
12:53 PM 28.9 °F 20.4 °F -0.0 °F 29% 30.45 in 10.0 mi NNE 9.2 mph - N/A   Partly Cloudy
1:53 PM 28.9 °F 20.4 °F -0.0 °F 29% 30.42 in 10.0 mi NE 9.2 mph 16.1 mph N/A   Partly Cloudy
2:53 PM 28.9 °F 21.1 °F 1.9 °F 32% 30.40 in 10.0 mi NE 8.1 mph 19.6 mph N/A   Partly Cloudy
3:53 PM 28.9 °F 22.8 °F 3.0 °F 33% 30.39 in 10.0 mi Variable 5.8 mph - N/A   Partly Cloudy
4:53 PM 28.0 °F 19.3 °F 1.0 °F 31% 30.39 in 10.0 mi NE 9.2 mph 16.1 mph N/A   Clear
5:53 PM 26.1 °F 19.4 °F -0.0 °F 32% 30.38 in 10.0 mi ENE 5.8 mph - N/A   Partly Cloudy
6:53 PM 24.1 °F 14.4 °F -0.9 °F 34% 30.38 in 10.0 mi NNE 9.2 mph 19.6 mph N/A   Clear
7:53 PM 23.0 °F 14.7 °F -2.0 °F 34% 30.37 in 10.0 mi NE 6.9 mph - N/A   Clear
8:53 PM 21.9 °F 15.7 °F -2.0 °F 35% 30.36 in 10.0 mi Variable 4.6 mph - N/A   Clear
9:53 PM 21.9 °F 13.4 °F -0.9 °F 37% 30.35 in 10.0 mi NE 6.9 mph - N/A   Unknown
10:53 PM 21.9 °F 15.7 °F -0.9 °F 37% 30.34 in 10.0 mi NE 4.6 mph - N/A   Unknown
11:53 PM 21.0 °F 11.4 °F -2.0 °F 36% 30.32 in 10.0 mi NE 8.1 mph - N/A   Unknown